Total_Precipitation_Accumulation
0.00 0.00 0.00 0.00 0.00 0.00 0.00 0.00 0.00 0.00 0.00 0.02 0.01 0.01 0.25 0.39 0.06 0.01 0.02 0.02 0.15 0.44 0.42 0.62 0.56 0.55 0.69 1.18 0.72 0.68 0.83 1.32 0.99 0.79 0.62 0.98 0.50 0.35 0.16 0.45 0.07 0.07 0.04 0.01 0.02 0.01 0.00 0.00 0.00 0.00 0.00 0.00 0.00 0.00 0.00 0.00 0.00 0.00 0.00 0.00 0.00 0.00 0.00 0.01 0.01 0.05 0.02 0.01 0.01 0.00 0.02 0.02 0.02 0.03 0.02 0.03 0.02 0.01 0.02 0.00 0.01 0.01 0.05 0.04 0.03 0.05
0.00 0.00 0.00 0.00 0.01 0.00 0.00 0.00 0.00 0.00 0.00 0.00 0.01 0.06 0.02 0.59 0.17 0.39 0.24 0.09 0.17 0.41 0.62 0.50 0.38 0.24 0.52 1.13 0.99 0.87 0.77 0.81 1.03 0.94 0.85 0.64 0.46 0.54 0.44 0.31 0.11 0.11 0.05 0.02 0.02 0.01 0.01 0.00 0.01 0.00 0.00 0.00 0.00 0.00 0.00 0.00 0.00 0.00 0.00 0.00 0.00 0.00 0.00 0.00 0.00 0.02 0.02 0.01 0.01 0.01 0.00 0.00 0.03 0.02 0.01 0.03 0.02 0.06 0.03 0.01 0.01 0.02 0.02 0.01 0.03 0.05
0.00 0.00 0.00 0.00 0.00 0.00 0.00 0.00 0.00 0.00 0.00 0.01 0.02 0.04 0.02 0.02 0.11 0.12 0.28 0.29 0.69 0.15 0.51 0.25 0.28 0.56 0.54 0.45 0.94 0.77 0.50 0.61 0.57 0.45 0.45 0.82 0.81 0.58 0.43 0.65 0.48 0.11 0.05 0.03 0.02 0.03 0.01 0.00 0.00 0.00 0.00 0.00 0.00 0.00 0.00 0.00 0.00 0.00 0.00 0.00 0.00 0.00 0.00 0.00 0.00 0.00 0.01 0.00 0.00 0.01 0.01 0.00 0.02 0.00 0.02 0.03 0.02 0.02 0.02 0.02 0.00 0.02 0.07 0.01 0.02 0.03
0.00 0.00 0.00 0.00 0.00 0.00 0.00 0.00 0.00 0.00 0.00 0.00 0.02 0.03 0.11 0.06 0.09 0.10 0.10 0.29 0.58 0.52 0.42 0.50 0.40 0.61 0.47 0.56 0.77 0.95 0.85 0.87 0.71 0.58 0.58 0.73 0.81 0.29 0.17 0.33 0.41 0.40 0.05 0.04 0.01 0.01 0.00 0.02 0.01 0.00 0.00 0.00 0.00 0.00 0.00 0.00 0.00 0.00 0.00 0.00 0.00 0.00 0.00 0.00 0.00 0.00 0.00 0.00 0.00 0.00 0.01 0.00 0.01 0.03 0.01 0.01 0.01 0.02 0.06 0.02 0.02 0.01 0.02 0.04 0.05 0.07
0.00 0.00 0.00 0.00 0.00 0.00 0.00 0.00 0.00 0.00 0.00 0.00 0.00 0.22 0.17 0.09 0.10 0.05 0.22 0.01 0.06 0.12 0.14 0.22 0.14 0.18 0.93 0.61 0.65 1.07 1.29 1.36 1.05 0.93 0.57 0.53 0.59 0.58 0.35 0.16 0.30 0.49 0.37 0.09 0.04 0.00 0.01 0.00 0.01 0.00 0.00 0.00 0.00 0.00 0.00 0.00 0.00 0.00 0.00 0.00 0.00 0.00 0.00 0.00 0.00 0.00 0.00 0.03 0.02 0.02 0.01 0.01 0.01 0.00 0.01 0.02 0.02 0.03 0.03 0.01 0.02 0.02 0.04 0.03 0.05 0.04
0.00 0.00 0.00 0.00 0.00 0.00 0.00 0.00 0.00 0.00 0.00 0.00 0.00 0.00 0.00 0.01 0.08 0.04 0.02 0.00 0.03 0.11 0.03 0.07 0.10 0.20 0.14 0.43 0.34 0.63 0.63 1.18 0.78 0.73 0.44 0.44 0.62 0.45 0.24 0.16 0.23 0.40 0.37 0.12 0.10 0.02 0.00 0.01 0.04 0.00 0.00 0.00 0.00 0.00 0.00 0.00 0.00 0.00 0.00 0.00 0.00 0.00 0.00 0.00 0.00 0.00 0.00 0.02 0.00 0.02 0.04 0.06 0.02 0.06 0.01 0.02 0.01 0.01 0.02 0.04 0.02 0.03 0.07 0.04 0.04 0.03
0.00 0.00 0.00 0.00 0.00 0.00 0.00 0.00 0.00 0.00 0.00 0.00 0.00 0.00 0.01 0.01 0.03 0.06 0.01 0.01 0.02 0.03 0.03 0.00 0.11 0.09 0.05 0.29 1.08 0.64 0.46 0.74 0.76 0.65 0.55 0.54 0.72 0.36 0.20 0.20 0.25 0.28 0.28 0.23 0.09 0.04 0.04 0.01 0.01 0.00 0.00 0.00 0.00 0.00 0.00 0.01 0.00 0.00 0.00 0.00 0.00 0.00 0.00 0.00 0.00 0.00 0.00 0.01 0.01 0.02 0.02 0.02 0.02 0.02 0.01 0.01 0.01 0.01 0.00 0.01 0.01 0.05 0.06 0.05 0.03 0.09
0.00 0.00 0.00 0.00 0.00 0.00 0.00 0.00 0.00 0.00 0.00 0.01 0.01 0.00 0.00 0.00 0.03 0.02 0.04 0.01 0.01 0.00 0.00 0.01 0.00 0.09 0.21 0.08 0.27 0.96 0.43 0.37 0.84 0.64 1.01 1.09 0.45 0.29 0.23 0.22 0.26 0.36 0.13 0.18 0.09 0.07 0.02 0.02 0.01 0.00 0.00 0.01 0.00 0.00 0.00 0.01 0.00 0.00 0.00 0.00 0.00 0.00 0.00 0.00 0.00 0.00 0.00 0.00 0.01 0.03 0.01 0.01 0.01 0.01 0.01 0.00 0.00 0.00 0.00 0.03 0.02 0.02 0.04 0.02 0.02 0.03
0.00 0.00 0.00 0.00 0.00 0.00 0.00 0.00 0.00 0.00 0.00 0.00 0.00 0.00 0.00 0.00 0.00 0.00 0.00 0.03 0.03 0.00 0.05 0.02 0.01 0.05 0.04 0.12 0.05 0.58 0.65 0.47 0.44 0.70 1.41 0.87 0.67 0.43 0.20 0.24 0.35 0.45 0.30 0.16 0.15 0.15 0.08 0.02 0.01 0.01 0.00 0.02 0.00 0.00 0.00 0.00 0.00 0.00 0.00 0.00 0.00 0.00 0.00 0.00 0.00 0.00 0.00 0.00 0.01 0.01 0.01 0.00 0.00 0.00 0.00 0.00 0.00 0.00 0.00 0.00 0.02 0.01 0.01 0.01 0.02 0.01
0.00 0.00 0.00 0.00 0.00 0.00 0.00 0.00 0.00 0.00 0.03 0.00 0.00 0.00 0.00 0.00 0.00 0.00 0.01 0.00 0.00 0.00 0.01 0.01 0.01 0.02 0.22 0.15 0.09 0.22 0.30 0.14 0.13 0.30 0.80 0.92 0.92 0.54 0.31 0.52 0.60 0.36 0.21 0.28 0.37 0.14 0.33 0.06 0.07 0.01 0.02 0.00 0.00 0.01 0.01 0.00 0.00 0.00 0.00 0.00 0.00 0.00 0.00 0.00 0.00 0.00 0.00 0.00 0.00 0.01 0.00 0.01 0.00 0.00 0.00 0.00 0.00 0.00 0.01 0.01 0.01 0.01 0.02 0.01 0.01 0.04
0.00 0.00 0.00 0.00 0.00 0.00 0.00 0.00 0.00 0.00 0.00 0.00 0.00 0.00 0.01 0.01 0.01 0.00 0.00 0.02 0.15 0.07 0.00 0.00 0.00 0.01 0.18 0.25 0.11 0.25 0.19 0.10 0.03 0.12 0.27 0.77 0.66 0.45 0.35 0.37 0.45 0.40 0.41 0.32 0.23 0.49 0.11 0.06 0.04 0.02 0.02 0.01 0.00 0.02 0.04 0.04 0.02 0.02 0.00 0.00 0.01 0.00 0.00 0.00 0.00 0.00 0.00 0.00 0.00 0.00 0.00 0.00 0.00 0.00 0.01 0.00 0.01 0.00 0.01 0.01 0.01 0.01 0.02 0.03 0.01 0.01
0.00 0.00 0.00 0.00 0.00 0.00 0.00 0.00 0.00 0.00 0.00 0.00 0.00 0.00 0.00 0.00 0.02 0.04 0.54 0.22 0.17 0.03 0.00 0.00 0.00 0.00 0.05 0.19 0.07 0.01 0.00 0.02 0.00 0.08 0.13 0.40 0.83 0.37 0.60 0.35 0.18 0.27 0.26 0.37 0.34 0.27 0.21 0.16 0.18 0.06 0.04 0.04 0.03 0.04 0.05 0.07 0.09 0.04 0.05 0.03 0.00 0.00 0.00 0.00 0.00 0.00 0.00 0.00 0.00 0.00 0.00 0.00 0.00 0.00 0.00 0.01 0.01 0.00 0.01 0.00 0.00 0.01 0.00 0.02 0.01 0.01
0.00 0.00 0.00 0.00 0.00 0.00 0.00 0.00 0.00 0.00 0.00 0.00 0.00 0.00 0.01 0.05 0.05 0.21 0.79 0.02 0.03 0.02 0.00 0.00 0.00 0.01 0.02 0.07 0.02 0.00 0.00 0.01 0.03 0.01 0.07 0.09 0.50 0.25 0.43 0.35 0.14 0.18 0.14 0.27 0.39 0.34 0.18 0.13 0.09 0.06 0.05 0.02 0.03 0.04 0.02 0.03 0.05 0.06 0.03 0.04 0.02 0.00 0.00 0.00 0.00 0.00 0.00 0.00 0.00 0.00 0.00 0.00 0.00 0.00 0.01 0.01 0.00 0.00 0.01 0.01 0.00 0.00 0.01 0.01 0.01 0.01
0.00 0.00 0.00 0.00 0.00 0.00 0.00 0.00 0.01 0.00 0.00 0.00 0.00 0.00 0.00 0.05 0.04 0.14 0.20 0.03 0.07 0.00 0.01 0.00 0.09 0.18 0.06 0.02 0.00 0.00 0.00 0.02 0.00 0.01 0.01 0.11 0.23 0.33 0.13 0.15 0.14 0.09 0.12 0.20 0.31 0.35 0.37 0.11 0.19 0.07 0.07 0.07 0.02 0.06 0.01 0.02 0.02 0.02 0.03 0.04 0.05 0.01 0.00 0.00 0.00 0.00 0.00 0.00 0.00 0.00 0.00 0.00 0.00 0.00 0.00 0.01 0.01 0.00 0.00 0.00 0.00 0.00 0.00 0.00 0.00 0.01
0.00 0.00 0.00 0.00 0.00 0.00 0.00 0.00 0.00 0.00 0.00 0.00 0.00 0.00 0.00 0.01 0.02 0.02 0.01 0.01 0.03 0.12 0.00 0.00 0.01 0.11 0.06 0.07 0.06 0.00 0.01 0.00 0.00 0.00 0.00 0.04 0.20 0.35 0.30 0.17 0.19 0.12 0.16 0.22 0.22 0.30 0.17 0.12 0.08 0.19 0.12 0.12 0.09 0.03 0.34 0.15 0.20 0.14 0.05 0.05 0.03 0.05 0.05 0.01 0.00 0.00 0.00 0.00 0.00 0.00 0.00 0.00 0.00 0.00 0.00 0.00 0.00 0.00 0.00 0.00 0.00 0.00 0.00 0.00 0.00 0.00
0.00 0.00 0.00 0.00 0.00 0.00 0.00 0.00 0.00 0.00 0.00 0.00 0.00 0.00 0.00 0.00 0.00 0.02 0.03 0.01 0.05 0.03 0.00 0.01 0.13 0.28 0.22 0.01 0.03 0.03 0.00 0.00 0.00 0.00 0.00 0.02 0.12 0.37 0.55 0.33 0.20 0.14 0.28 0.28 0.49 0.46 0.34 0.29 0.19 0.12 0.24 0.12 0.12 0.11 0.36 0.15 0.21 0.58 0.33 0.08 0.12 0.05 0.03 0.05 0.01 0.00 0.00 0.00 0.00 0.00 0.00 0.00 0.00 0.00 0.00 0.01 0.00 0.00 0.00 0.00 0.00 0.00 0.00 0.00 0.01 0.00
0.00 0.00 0.00 0.00 0.00 0.00 0.00 0.00 0.01 0.00 0.00 0.00 0.00 0.00 0.00 0.00 0.00 0.01 0.00 0.00 0.00 0.01 0.03 0.00 0.02 0.02 0.00 0.01 0.21 0.18 0.09 0.03 0.00 0.00 0.00 0.01 0.02 0.13 0.24 0.34 0.41 0.68 1.11 0.86 1.20 1.25 1.03 0.87 0.25 0.37 0.25 0.28 0.24 0.21 0.33 0.22 0.57 0.56 0.90 0.36 0.14 0.25 0.29 0.03 0.04 0.01 0.00 0.00 0.00 0.00 0.00 0.00 0.00 0.00 0.00 0.00 0.00 0.00 0.01 0.01 0.00 0.01 0.00 0.00 0.00 0.00
0.00 0.00 0.00 0.00 0.00 0.00 0.00 0.00 0.00 0.00 0.00 0.00 0.00 0.00 0.00 0.00 0.00 0.00 0.01 0.04 0.01 0.03 0.06 0.01 0.04 0.06 0.03 0.17 0.02 0.04 0.04 0.00 0.01 0.00 0.00 0.01 0.00 0.06 0.26 0.68 1.00 1.05 1.21 1.13 1.48 1.10 0.79 1.05 0.82 0.85 0.59 0.84 0.33 0.17 0.45 0.51 0.61 0.72 0.67 0.61 0.30 0.20 0.27 0.12 0.05 0.06 0.03 0.02 0.00 0.00 0.00 0.00 0.00 0.00 0.00 0.00 0.00 0.00 0.01 0.01 0.00 0.01 0.00 0.00 0.00 0.00
0.00 0.00 0.00 0.00 0.00 0.00 0.00 0.00 0.00 0.00 0.00 0.00 0.00 0.00 0.00 0.00 0.00 0.00 0.00 0.00 0.02 0.00 0.08 0.01 0.05 0.03 0.07 0.11 0.01 0.04 0.01 0.00 0.00 0.00 0.00 0.00 0.00 0.02 0.09 0.30 0.32 0.43 0.87 1.25 1.38 1.65 1.31 1.03 1.06 1.56 1.12 0.87 0.93 0.53 0.37 0.58 0.62 0.69 0.47 0.27 0.51 0.36 0.30 0.12 0.09 0.11 0.06 0.08 0.03 0.00 0.00 0.00 0.00 0.00 0.00 0.00 0.00 0.00 0.00 0.00 0.00 0.00 0.01 0.00 0.00 0.00
0.00 0.00 0.00 0.00 0.00 0.00 0.00 0.00 0.00 0.00 0.00 0.00 0.00 0.00 0.00 0.00 0.00 0.00 0.00 0.06 0.01 0.09 0.01 0.45 0.20 0.40 0.36 0.13 0.08 0.08 0.28 0.24 0.15 0.05 0.00 0.00 0.00 0.02 0.03 0.21 0.40 0.43 0.57 1.19 1.12 1.16 0.66 0.40 0.60 1.04 1.11 1.37 1.23 0.80 0.67 1.10 0.34 0.21 0.42 0.30 0.42 0.71 0.63 0.18 0.13 0.09 0.09 0.12 0.06 0.03 0.01 0.00 0.00 0.00 0.00 0.00 0.00 0.00 0.00 0.00 0.05 0.00 0.01 0.00 0.00 0.00
0.00 0.00 0.00 0.00 0.00 0.00 0.00 0.00 0.00 0.00 0.00 0.00 0.00 0.00 0.00 0.00 0.00 0.00 0.01 0.04 0.02 0.05 0.00 0.05 0.14 0.10 0.17 0.19 1.07 0.60 0.84 0.35 0.07 0.00 0.00 0.00 0.00 0.02 0.01 0.05 0.53 0.58 0.47 0.54 0.46 0.80 0.69 0.49 0.32 0.79 1.19 0.92 0.74 0.81 0.69 0.87 0.68 0.62 0.53 0.50 0.67 0.61 0.34 0.27 0.30 0.56 0.23 0.15 0.19 0.10 0.01 0.04 0.00 0.00 0.00 0.00 0.00 0.03 0.00 0.00 0.03 0.03 0.06 0.02 0.00 0.00
0.00 0.00 0.00 0.00 0.00 0.00 0.00 0.00 0.00 0.00 0.00 0.00 0.00 0.00 0.00 0.00 0.00 0.00 0.00 0.00 0.01 0.01 0.00 0.02 0.19 0.06 0.03 0.12 0.11 0.24 0.05 0.09 0.00 0.00 0.00 0.00 0.00 0.00 0.01 0.01 0.05 0.22 0.48 0.31 0.37 0.40 0.32 0.61 0.30 0.57 0.63 0.37 0.44 0.71 1.35 0.70 0.91 0.86 0.53 0.47 0.58 0.21 0.70 0.56 0.77 0.98 0.67 0.54 0.43 0.41 0.29 0.34 0.21 0.00 0.00 0.00 0.00 0.00 0.00 0.00 0.04 0.01 0.00 0.00 0.01 0.00
0.00 0.00 0.00 0.01 0.00 0.00 0.00 0.00 0.00 0.00 0.00 0.01 0.00 0.00 0.00 0.00 0.00 0.01 0.00 0.00 0.00 0.00 0.00 0.10 0.07 0.17 0.03 0.05 0.22 0.07 0.03 0.01 0.00 0.00 0.01 0.01 0.00 0.00 0.00 0.00 0.01 0.05 0.26 0.28 0.23 0.31 0.32 0.45 0.37 0.11 0.10 0.17 0.24 0.42 0.46 0.51 0.60 0.93 1.29 1.38 1.08 1.40 1.40 1.02 1.02 1.12 0.85 0.88 0.71 0.38 0.30 0.27 0.24 0.07 0.03 0.00 0.00 0.02 0.02 0.00 0.00 0.00 0.00 0.01 0.05 0.02
0.00 0.00 0.00 0.00 0.00 0.00 0.00 0.00 0.00 0.00 0.00 0.00 0.00 0.00 0.00 0.00 0.00 0.00 0.00 0.03 0.02 0.03 0.02 0.10 0.10 0.18 0.06 0.11 0.08 0.20 0.13 0.01 0.01 0.01 0.01 0.01 0.01 0.01 0.00 0.00 0.00 0.00 0.05 0.14 0.20 0.21 0.31 0.43 0.63 0.53 0.32 0.20 0.31 0.43 0.39 0.54 0.61 0.98 1.40 2.02 1.86 1.91 2.02 1.72 1.78 1.30 1.06 0.72 0.48 0.48 0.53 0.26 0.27 0.23 0.14 0.09 0.03 0.01 0.00 0.00 0.00 0.00 0.01 0.00 0.01 0.01
0.00 0.02 0.00 0.02 0.03 0.00 0.00 0.00 0.00 0.00 0.00 0.00 0.00 0.00 0.00 0.00 0.00 0.00 0.00 0.02 0.02 0.00 0.10 0.04 0.05 0.12 0.12 0.03 0.02 0.00 0.01 0.02 0.01 0.00 0.01 0.01 0.01 0.01 0.00 0.00 0.00 0.00 0.01 0.08 0.18 0.21 0.20 0.25 0.27 0.37 0.27 0.38 0.50 0.34 0.28 0.34 0.43 0.89 1.01 1.28 0.86 1.75 2.16 0.87 1.10 1.13 1.33 1.00 0.73 0.66 0.43 0.41 0.47 0.27 0.55 0.73 0.47 0.12 0.03 0.01 0.00 0.00 0.00 0.00 0.00 0.00
0.04 0.01 0.05 0.06 0.01 0.00 0.00 0.00 0.05 0.05 0.00 0.00 0.00 0.00 0.02 0.01 0.00 0.00 0.00 0.01 0.00 0.02 0.02 0.05 0.12 0.06 0.03 0.04 0.22 0.20 0.01 0.02 0.01 0.01 0.01 0.00 0.00 0.00 0.01 0.01 0.01 0.01 0.01 0.02 0.08 0.18 0.22 0.22 0.18 0.25 0.43 0.47 1.02 0.80 0.77 0.87 0.65 0.88 1.65 1.10 1.26 1.39 1.73 1.35 1.03 1.06 1.17 1.15 0.82 0.58 0.35 0.20 0.21 0.34 0.37 0.44 0.55 0.45 0.12 0.03 0.01 0.01 0.00 0.01 0.03 0.05
0.03 0.02 0.00 0.01 0.03 0.11 0.23 0.16 0.02 0.00 0.01 0.01 0.03 0.00 0.01 0.01 0.01 0.00 0.01 0.01 0.00 0.04 0.07 0.07 0.00 0.06 0.03 0.03 0.02 0.03 0.02 0.02 0.07 0.01 0.01 0.02 0.00 0.00 0.01 0.01 0.02 0.02 0.01 0.02 0.04 0.06 0.12 0.19 0.30 1.05 1.25 0.57 0.96 1.01 1.31 0.76 0.93 1.33 1.24 1.06 0.94 0.98 0.90 1.21 0.84 0.90 1.60 1.41 0.81 0.71 0.47 0.37 0.32 0.10 0.36 0.72 0.92 0.89 0.33 0.11 0.04 0.03 0.02 0.04 0.02 0.01
0.02 0.08 0.01 0.01 0.00 0.00 0.03 0.00 0.05 0.00 0.00 0.00 0.00 0.00 0.00 0.02 0.00 0.07 0.02 0.04 0.01 0.04 0.08 0.02 0.02 0.01 0.05 0.02 0.03 0.02 0.03 0.07 0.12 0.01 0.00 0.01 0.01 0.01 0.01 0.01 0.02 0.02 0.02 0.03 0.05 0.06 0.09 0.60 0.75 1.88 0.79 0.58 1.29 1.22 0.29 0.30 0.36 1.07 0.73 0.95 0.95 1.00 0.60 0.30 0.27 0.46 0.71 0.66 0.62 0.73 0.89 0.86 0.67 0.98 0.93 0.92 0.47 0.60 0.58 0.32 0.03 0.06 0.04 0.02 0.01 0.00
0.03 0.07 0.07 0.01 0.00 0.00 0.00 0.01 0.01 0.12 0.00 0.00 0.00 0.00 0.03 0.00 0.00 0.01 0.00 0.00 0.01 0.02 0.15 0.02 0.03 0.04 0.00 0.07 0.06 0.04 0.05 0.01 0.14 0.39 0.05 0.00 0.00 0.00 0.00 0.00 0.00 0.02 0.02 0.02 0.02 0.10 0.73 0.54 0.58 0.22 0.14 0.45 0.95 0.52 0.66 0.54 0.50 0.47 0.58 0.53 0.56 0.48 0.28 0.26 0.45 0.36 0.42 0.84 1.39 1.52 1.66 1.61 1.50 1.14 1.10 1.08 0.57 0.87 1.23 0.50 0.03 0.02 0.01 0.02 0.01 0.00
0.04 0.04 0.04 0.01 0.01 0.01 0.00 0.00 0.00 0.01 0.00 0.00 0.00 0.00 0.00 0.00 0.00 0.00 0.00 0.00 0.01 0.01 0.03 0.02 0.07 0.14 0.07 0.19 0.11 0.09 0.04 0.01 0.18 0.21 0.23 0.06 0.01 0.00 0.01 0.02 0.02 0.02 0.04 0.08 0.16 0.21 0.10 0.07 0.07 0.08 0.10 0.65 0.21 0.35 0.46 0.52 0.89 0.69 0.36 0.56 0.56 0.36 0.63 0.72 0.90 0.85 1.52 1.53 1.81 1.48 1.18 1.62 1.58 1.33 0.94 1.16 0.99 0.90 0.58 0.15 0.06 0.03 0.03 0.01 0.01 0.00
0.01 0.03 0.02 0.04 0.04 0.03 0.01 0.02 0.00 0.00 0.00 0.00 0.00 0.00 0.01 0.01 0.00 0.00 0.00 0.00 0.00 0.01 0.01 0.02 0.04 0.10 0.39 0.14 0.14 0.06 0.03 0.01 0.07 0.13 0.45 0.27 0.03 0.00 0.01 0.07 0.02 0.09 0.19 0.05 0.13 0.02 0.02 0.02 0.04 0.06 0.04 0.07 0.09 0.30 0.45 0.53 0.76 1.33 1.78 0.75 0.77 0.57 0.53 0.41 0.90 1.29 1.03 1.28 1.11 1.38 1.22 1.38 1.25 0.93 1.06 0.87 0.75 0.74 0.54 0.41 0.40 0.21 0.04 0.03 0.00 0.00
0.02 0.03 0.02 0.15 0.05 0.04 0.03 0.04 0.01 0.00 0.00 0.00 0.00 0.00 0.00 0.01 0.01 0.01 0.01 0.03 0.02 0.04 0.03 0.06 0.13 0.07 0.25 0.18 0.67 0.05 0.03 0.17 0.09 0.09 0.18 0.68 0.23 0.06 0.00 0.06 0.07 0.14 0.08 0.11 0.01 0.01 0.01 0.02 0.02 0.09 0.14 0.06 0.11 0.08 0.17 0.17 0.45 0.40 0.73 0.64 0.42 0.72 0.71 0.65 0.61 0.65 0.88 0.72 0.52 0.62 0.90 1.32 0.92 0.85 0.80 0.68 0.64 0.65 0.67 0.53 0.42 0.38 0.33 0.19 0.07 0.05
0.07 0.04 0.04 0.09 0.04 0.02 0.04 0.07 0.05 0.04 0.07 0.03 0.00 0.00 0.01 0.01 0.01 0.03 0.01 0.00 0.03 0.03 0.04 0.07 0.26 0.06 0.08 0.07 0.06 0.15 0.04 0.04 0.16 0.14 0.07 0.28 0.51 0.30 0.03 0.03 0.05 0.21 0.03 0.02 0.05 0.05 0.01 0.04 0.01 0.01 0.01 0.08 0.49 0.19 0.14 0.23 0.29 0.87 0.74 0.44 0.30 0.72 1.21 1.43 0.98 0.55 0.48 0.75 0.69 0.57 1.06 0.86 0.85 0.84 0.62 0.86 1.07 0.92 0.85 0.57 0.72 0.57 0.45 0.24 0.12 0.09
0.10 0.06 0.07 0.09 0.23 0.08 0.04 0.11 0.14 0.24 0.15 0.01 0.02 0.00 0.00 0.01 0.05 0.02 0.04 0.07 0.02 0.02 0.14 0.14 0.12 0.07 0.04 0.08 0.06 0.02 0.10 0.08 0.06 0.07 0.11 0.10 0.28 0.26 0.28 0.06 0.01 0.05 0.04 0.05 0.16 0.35 0.38 0.05 0.11 0.03 0.07 0.01 0.04 0.05 0.13 0.40 0.20 0.17 0.22 0.50 0.89 1.28 1.22 0.79 1.07 0.66 0.51 0.55 0.88 0.51 0.70 0.70 1.19 1.25 1.11 1.51 1.39 1.36 1.09 0.79 0.52 0.53 0.42 0.28 0.19 0.14
0.11 0.11 0.09 0.16 0.15 0.11 0.08 0.26 0.22 0.29 0.04 0.02 0.01 0.08 0.06 0.09 0.11 0.05 0.12 0.04 0.02 0.01 0.01 0.04 0.05 0.02 0.03 0.05 0.05 0.01 0.03 0.07 0.06 0.13 0.01 0.10 0.06 0.29 0.32 0.47 0.17 0.03 0.08 0.01 0.00 0.00 0.20 0.94 0.75 0.90 0.64 0.36 0.22 0.02 0.01 0.01 0.05 0.11 0.28 0.22 0.11 0.14 1.03 0.64 0.92 0.95 0.29 0.22 0.22 0.26 0.67 0.62 0.66 0.77 0.64 1.21 1.41 1.08 1.12 1.07 0.74 0.56 0.48 0.44 0.62 0.63
0.08 0.15 0.17 0.16 0.12 0.03 0.22 0.58 0.64 0.16 0.39 0.06 0.05 0.19 0.17 0.07 0.03 0.05 0.09 0.02 0.00 0.03 0.02 0.02 0.08 0.14 0.07 0.04 0.05 0.02 0.02 0.02 0.05 0.03 0.02 0.06 0.06 0.09 0.33 0.23 0.42 0.11 0.10 0.01 0.00 0.00 0.00 0.09 0.34 0.58 0.78 0.99 1.14 0.62 0.22 0.14 0.06 0.09 0.13 0.10 0.15 0.14 0.32 0.08 0.25 0.17 0.22 0.12 0.08 0.52 0.56 0.15 1.03 0.74 0.69 1.20 0.81 0.79 1.08 1.29 1.06 0.91 0.68 0.77 0.93 0.97
0.13 0.16 0.22 0.17 0.11 0.22 0.05 0.46 0.26 0.71 0.35 0.32 0.22 0.49 0.32 0.31 0.30 0.27 0.37 0.14 0.08 0.03 0.05 0.09 0.09 0.09 0.04 0.13 0.16 0.04 0.04 0.00 0.01 0.14 0.00 0.01 0.03 0.02 0.06 0.16 0.32 0.46 0.08 0.01 0.03 0.02 0.02 0.00 0.00 0.17 0.06 0.25 0.52 0.75 0.89 1.18 0.93 0.32 0.47 0.35 0.06 0.79 1.16 0.11 0.08 0.23 0.33 0.43 0.53 0.65 0.39 0.39 0.76 1.05 1.27 1.05 1.31 1.30 1.14 0.79 0.86 0.96 1.16 1.09 0.90 0.79
0.21 0.31 0.22 0.22 0.34 0.08 0.20 0.23 1.13 0.57 0.75 0.59 0.46 0.16 0.06 0.29 0.09 0.09 0.13 0.26 0.13 0.22 0.17 0.14 0.09 0.04 0.06 0.13 0.18 0.17 0.06 0.05 0.08 0.12 0.02 0.01 0.03 0.03 0.14 0.04 0.09 0.34 0.28 0.27 0.07 0.04 0.01 0.02 0.01 0.00 0.04 0.07 0.03 0.36 0.53 1.02 0.93 0.22 0.16 0.10 0.16 0.13 0.45 0.33 0.01 0.02 0.10 0.67 1.02 0.54 0.41 0.67 0.53 0.50 0.37 1.07 1.49 0.97 0.93 1.31 1.12 1.14 1.50 1.49 1.14 0.90
0.25 0.32 0.25 0.32 0.21 0.23 0.21 0.30 0.65 0.60 0.71 1.07 0.43 0.27 0.13 0.06 0.37 0.38 0.11 0.40 0.37 0.38 0.25 0.40 0.36 0.07 0.03 0.02 0.05 0.03 0.14 0.23 0.37 0.13 0.03 0.03 0.03 0.03 0.04 0.10 0.10 0.07 0.24 0.21 0.10 0.04 0.00 0.00 0.03 0.01 0.01 0.00 0.03 0.15 0.18 0.17 0.40 0.37 0.06 0.06 0.15 0.30 0.26 0.29 0.20 0.03 0.05 0.08 0.22 0.35 0.07 0.12 0.21 0.17 0.32 0.25 0.52 1.13 1.66 1.34 1.03 0.87 1.07 1.00 0.61 0.63
0.51 0.45 0.54 0.51 0.37 0.19 0.19 0.29 0.55 0.55 1.22 0.68 0.74 0.30 0.12 0.13 0.30 0.40 0.31 0.53 0.35 0.22 0.18 0.14 0.23 0.37 0.22 0.05 0.09 0.12 0.30 0.18 0.18 0.17 0.11 0.14 0.14 0.13 0.08 0.13 0.06 0.04 0.09 0.14 0.17 0.04 0.02 0.01 0.00 0.00 0.01 0.01 0.01 0.05 0.12 0.09 0.20 0.21 0.14 0.15 0.12 0.05 0.13 0.27 0.41 0.60 0.42 0.62 0.43 0.33 0.22 0.11 0.07 0.14 0.26 0.44 0.15 0.43 0.53 0.72 0.61 0.99 0.76 0.64 0.58 0.55
0.64 0.51 0.48 0.35 0.23 0.50 0.25 0.20 0.31 0.61 0.34 0.45 0.72 0.53 0.19 0.39 0.30 0.33 0.48 2.89 0.40 0.27 0.22 0.27 0.39 0.37 0.33 0.22 0.33 0.25 0.27 0.57 0.57 0.52 0.25 0.60 0.58 0.57 0.46 0.30 0.17 0.05 0.03 0.01 0.17 0.08 0.07 0.03 0.01 0.00 0.00 0.02 0.00 0.00 0.08 0.16 0.06 0.03 0.10 0.07 0.01 0.02 0.09 0.11 0.10 0.19 0.33 0.09 0.01 0.01 0.01 0.19 0.35 0.28 0.22 0.26 0.44 0.50 1.41 2.12 1.58 0.99 0.94 0.54 0.11 0.19
0.61 0.63 0.44 0.36 0.47 0.65 0.40 0.36 0.25 0.77 1.17 0.62 0.41 0.49 1.15 1.06 0.63 0.89 1.00 0.60 0.94 0.63 0.25 0.23 0.20 0.10 0.06 0.14 0.28 0.25 0.49 0.41 0.46 0.31 0.23 0.34 0.20 0.17 0.11 0.07 0.10 0.04 0.06 0.04 0.07 0.08 0.05 0.02 0.01 0.00 0.00 0.00 0.00 0.00 0.00 0.03 0.18 0.14 0.01 0.00 0.01 0.02 0.02 0.06 0.13 0.11 0.03 0.05 0.10 0.09 0.02 0.03 0.06 0.10 0.35 0.30 0.46 1.53 1.28 1.10 1.26 1.10 0.05 0.10 0.15 0.20
1.04 0.75 0.67 0.39 0.38 0.51 0.54 0.60 0.39 0.76 1.60 0.23 0.83 1.37 1.65 0.69 1.48 0.76 0.60 0.38 0.98 0.39 0.31 0.23 0.29 0.17 0.06 0.05 0.05 0.13 0.22 0.34 0.35 0.29 0.12 0.10 0.14 0.14 0.10 0.09 0.08 0.11 0.10 0.18 0.12 0.10 0.05 0.04 0.01 0.01 0.01 0.00 0.00 0.00 0.00 0.00 0.00 0.04 0.13 0.06 0.01 0.05 0.04 0.01 0.01 0.03 0.05 0.15 0.20 0.26 0.56 0.87 1.12 1.00 1.09 1.13 1.03 0.21 0.22 0.17 0.08 0.12 0.11 0.15 0.25 0.19
0.86 0.93 0.89 0.66 0.52 1.20 0.76 0.85 0.99 1.13 0.79 0.56 0.85 2.51 1.20 1.11 0.73 0.48 0.39 0.61 0.93 0.96 0.43 0.35 0.21 0.23 0.12 0.05 0.08 0.15 0.19 0.20 0.15 0.12 0.07 0.07 0.02 0.08 0.08 0.05 0.08 0.03 0.03 0.01 0.05 0.14 0.04 0.08 0.08 0.02 0.01 0.01 0.01 0.00 0.00 0.01 0.01 0.00 0.03 0.17 0.19 0.01 0.01 0.00 0.00 0.00 0.00 0.01 0.09 0.10 0.15 0.28 0.17 0.19 0.06 0.05 0.01 0.02 0.03 0.03 0.01 0.03 0.17 0.14 0.39 0.73
1.10 1.18 1.33 1.00 0.82 0.59 1.13 0.97 0.96 0.56 0.92 0.65 0.82 1.19 1.02 0.87 0.36 0.61 0.28 0.39 0.92 1.34 0.85 0.38 0.21 0.23 0.21 0.06 0.06 0.13 0.32 0.40 0.16 0.10 0.07 0.11 0.12 0.06 0.14 0.11 0.09 0.11 0.09 0.13 0.04 0.05 0.04 0.01 0.03 0.03 0.03 0.01 0.01 0.01 0.00 0.01 0.02 0.06 0.01 0.04 0.04 0.19 0.04 0.00 0.00 0.00 0.01 0.01 0.00 0.00 0.00 0.00 0.04 0.01 0.03 0.04 0.04 0.03 0.01 0.03 0.19 0.42 0.53 0.72 0.65 0.44
0.80 0.87 0.69 0.60 0.60 0.37 0.51 0.58 0.79 0.58 0.50 1.19 0.55 1.32 1.32 1.08 0.45 0.57 0.57 0.50 0.44 0.78 0.78 1.17 0.48 0.33 0.27 0.23 0.23 0.14 0.35 0.64 0.64 0.09 0.14 0.11 0.12 0.32 0.27 0.22 0.19 0.33 0.39 0.26 0.08 0.15 0.14 0.13 0.07 0.11 0.20 0.24 0.27 0.21 0.21 0.16 0.17 0.15 0.23 0.22 0.19 0.07 0.29 0.44 0.68 0.81 1.04 0.81 0.76 0.58 0.31 0.15 0.13 0.22 0.36 0.41 0.53 0.68 0.78 0.80 0.81 0.71 0.56 0.39 0.47 0.43
0.77 0.55 0.74 0.52 0.67 0.33 0.79 0.60 1.04 0.78 0.56 0.83 1.13 1.09 1.57 1.63 1.60 0.82 0.93 0.67 0.83 0.83 0.79 0.64 0.94 0.60 0.70 0.87 0.55 0.53 0.72 0.68 1.00 0.69 0.13 0.10 0.38 0.29 0.09 0.13 0.25 0.41 0.41 0.36 0.37 0.17 0.17 0.39 0.36 0.42 0.41 0.50 0.46 0.49 0.61 0.88 0.96 0.93 0.76 0.62 0.75 0.93 1.38 1.67 1.64 1.57 1.58 1.37 1.40 1.41 1.09 0.99 1.00 0.94 0.77 0.65 0.62 0.59 0.46 0.40 0.56 0.45 0.51 0.44 0.42 0.34
1.37 0.60 0.62 0.45 0.59 0.44 0.69 0.61 0.72 0.79 0.85 1.02 1.07 1.16 1.41 1.58 2.21 1.75 1.41 0.57 0.76 1.70 0.96 0.80 0.96 1.22 0.82 0.51 0.63 0.50 0.40 0.65 0.74 1.31 0.91 0.86 0.55 0.47 0.30 0.28 0.36 0.42 0.51 0.60 0.81 0.78 0.64 0.63 0.66 0.68 0.55 0.97 0.97 0.94 0.94 1.45 1.24 1.40 1.60 1.62 1.17 0.85 0.44 0.64 0.50 0.53 0.40 0.42 0.43 0.40 0.37 0.33 0.24 0.35 0.45 0.50 0.37 0.35 0.19 0.12 0.16 0.21 0.14 0.09 0.07 0.17
1.13 0.52 0.90 0.98 0.61 0.88 0.65 0.82 0.70 0.59 0.56 1.12 0.82 0.96 1.12 1.28 1.70 2.07 1.51 0.93 0.57 1.06 1.12 0.97 0.67 1.00 0.84 0.59 0.19 0.37 0.21 0.24 0.25 0.73 1.02 0.41 0.49 0.43 0.65 0.47 0.41 0.48 0.33 0.25 0.51 0.55 0.39 0.34 0.40 0.34 0.22 0.15 0.36 0.88 1.03 1.42 1.72 1.69 1.44 1.76 1.79 1.58 1.50 1.38 0.97 0.74 0.42 0.30 0.30 0.14 0.11 0.19 0.42 0.40 0.33 0.34 0.22 0.11 0.18 0.07 0.05 0.03 0.09 0.05 0.07 0.12
0.75 0.78 0.73 0.62 0.93 0.72 0.84 0.96 0.69 0.92 0.90 0.67 0.75 0.71 0.95 1.27 1.16 1.76 1.69 1.19 0.48 0.70 1.01 0.93 0.59 0.60 0.67 0.53 0.77 0.79 0.81 0.74 0.62 0.55 1.38 0.57 0.61 0.65 0.40 0.43 0.35 0.53 0.55 0.43 0.54 0.57 0.43 0.67 0.54 0.53 0.59 0.83 1.07 1.01 1.29 1.14 1.02 0.89 1.05 0.85 0.65 0.76 0.91 0.99 1.07 0.98 1.05 0.74 0.66 0.70 0.74 0.51 0.38 0.24 0.24 0.27 0.11 0.13 0.17 0.09 0.10 0.07 0.14 0.23 0.13 0.23
0.92 0.96 0.89 1.18 0.86 0.76 0.91 0.99 0.90 1.05 0.88 0.58 0.57 0.45 0.52 0.72 0.76 1.19 1.83 1.78 1.00 0.34 0.62 1.06 1.01 0.76 0.90 0.48 0.30 0.34 0.50 0.31 0.30 0.12 0.65 1.04 0.37 0.37 0.46 0.45 0.20 0.22 0.52 0.68 0.82 0.89 0.89 0.75 0.48 0.47 0.56 0.48 0.22 0.25 0.58 1.11 1.00 0.68 0.47 0.44 0.64 0.68 0.62 0.71 0.72 0.77 0.90 1.59 1.47 1.25 1.17 0.94 0.90 1.08 1.03 1.11 1.12 0.57 0.43 0.31 0.33 0.25 0.32 0.18 0.22 0.11